Regional Weather Roundup
Issued by NWS

Home | Current Version | Previous Version | Graphics & Text | Print | Product List | Glossary On
Versions: 1 2 3 4 5 6 7 8 9 10 11 12 13 14 15 16 17 18 19 20 21 22 23 24 25 26 27 28 29 30 31 32 33 34 35 36 37 38 39 40 41 42 43 44 45 46 47 48 49 50
000
ASUS43 KLOT 201203
RWRIL

ILLINOIS REGIONAL WEATHER ROUNDUP
NATIONAL WEATHER SERVICE CHICAGO/ROMEOVILLE IL
700 AM CDT THU JUL 20 2017

NOTE: "FAIR" INDICATES FEW OR NO CLOUDS BELOW 12,000 FEET WITH NO
SIGNIFICANT WEATHER AND/OR OBSTRUCTIONS TO VISIBILITY.

* THESE STATIONS ARE NOT UNDER NWS QUALITY CONTROL. THEY ALSO MAY NOT
  REPORT WEATHER SUCH AS PRECIPITATION OR FOG.

ILZ001-002-007-009-015-016-024-201300-
NORTHWEST ILLINOIS

CITY           SKY/WX    TMP DP  RH WIND       PRES   REMARKS
MOLINE         CLOUDY    80  71  74 VRB3      29.97R HX  84
6HR MIN TEMP:  75; 6HR MAX TEMP:  80; 6HR PCP: TRACE;

STERLING*      TSTM      70  70 100 NE7G21    30.06R FOG
SAVANNA*       CLOUDY    69  68  98 E6        30.02F
$$

ILZ003-004-008-010-011-017-018-201300-
NORTH CENTRAL ILLINOIS

CITY           SKY/WX    TMP DP  RH WIND       PRES   REMARKS
ROCKFORD       TSTM      71  66  84 E13       30.01F
6HR MIN TEMP:  69; 6HR MAX TEMP:  73; 6HR PCP:  2.45;

FREEPORT*      CLOUDY    66  65  99 SE7       30.04F
ROCHELLE*      TSTM      68  67  98 SE8       30.03R VSB 1/2
DE KALB*       TSTM      69  68  98 S5G21     30.10R
PERU*          CLOUDY    70  66  88 NE8       30.07R THUNDER
$$

ILZ005-006-012>014-019>023-201300-
NORTHEAST ILLINOIS

CITY           SKY/WX    TMP DP  RH WIND       PRES   REMARKS
CHICAGO-OHARE  TSTM      70  68  93 SE7       30.04F
6HR MIN TEMP:  70; 6HR MAX TEMP:  71; 6HR PCP:  0.92;

CHICAGO-MIDWAY TSTM      71  69  93 NE6       30.05F FOG
6HR MIN TEMP:  70; 6HR MAX TEMP:  72; 6HR PCP:  0.44;

AURORA         RAIN      69  69 100 SE10      30.02F
6HR MIN TEMP:  69; 6HR MAX TEMP:  71; 6HR PCP:  0.17;

LANSING*       TSTM      70  66  88 NE6       30.08R
JOLIET*        CLOUDY    71  70  94 N6        30.08R
WAUKEGAN       LGT RAIN  68  68 100 VRB5      30.07R FOG
6HR MIN TEMP:  68; 6HR MAX TEMP:  70; 6HR PCP:  0.34;

DUPAGE AIRPORT RAIN      69  69 100 SE9       30.02F FOG
6HR MIN TEMP:  68; 6HR MAX TEMP:  70; 6HR PCP:  0.27;

WHEELING       LGT RAIN  69  69 100 S6        30.05S
6HR MIN TEMP:  68; 6HR MAX TEMP:  71; 6HR PCP:  0.71;

MORRIS*        LGT RAIN  70  68  94 NE3       30.05R
ROMEOVILLE*    TSTM      70  66  88 CALM      30.08R
NORTHERLY ISL    N/A     69  67  93 CALM        N/A
$$

LMZ740>746-201300-
SOUTHERN LAKE MICHIGAN

STATION/POSITION SKY/WX   TEMP    WIND        PRES    VSBY  WAVE
                          AIR SEA DIR/SP/G                  HT/PER
                          (F)     (DEG/KT/KT) (MB)    (MI)  (FT/S)
SOUTHERN BUOY              69 69  280/ 10/ 12 1016.6          2/ 4
WILMETTE HARBOR            69 71   60/  6/  8   N/A           1/ 2
HARRISON CRIB              69      30/  5/  6   N/A
BURNHAM HARBOR             69                   N/A
CALUMET HARBOR             69     310/  9/ 12 1018.3R
BURNS HARBOR               71     310/  3/  5 1019.3R
MICHIGAN CITY              70     220/  4/  5   N/A
MICHIGAN CITY 6N           71 74  210/  2/  4   N/A           1/ 3
ST. JOSEPH                 72 74  320/ 12/ 17 1018.0R         2/ 3
$$

ILZ025>027-034>036-040-047-049-050-058-095>099-201300-
WEST-CENTRAL ILLINOIS

CITY           SKY/WX    TMP DP  RH WIND       PRES   REMARKS
QUINCY         CLOUDY    76  71  85 S8        30.03R
GALESBURG*     CLOUDY    76  71  83 SW9       30.01R THUNDER
MACOMB*        MOSUNNY   76  70  80 SW5       30.04R
JACKSONVILLE*  MOSUNNY   76  71  82 SW8       30.04R
PITTSFIELD*    CLOUDY    76  71  85 SW5       30.06R
$$

ILZ028>032-037-038-041>044-048-051>054-059>061-201300-
CENTRAL ILLINOIS

CITY           SKY/WX    TMP DP  RH WIND       PRES   REMARKS
PONTIAC        CLOUDY    71  70  95 SE3       30.03R
BLOOMINGTON    PTSUNNY   74  70  87 S10       30.03F
DECATUR        MOSUNNY   77  74  90 SW8       30.05R
PEORIA         CLOUDY    74  72  93 SW7       30.00F
6HR MIN TEMP:  73; 6HR MAX TEMP:  76;

LACON*         LGT RAIN  73  70  91 S6        29.99R
SPRINGFIELD    CLOUDY    79  74  84 SW5       30.04R HX  82
6HR MIN TEMP:  75; 6HR MAX TEMP:  80;

TAYLORVILLE    CLOUDY    76  73  90 SW5       30.05R
6HR MIN TEMP:  74; 6HR MAX TEMP:  77;

$$

ILZ033-039-045-046-055>057-062-063-201300-
EAST-CENTRAL ILLINOIS

CITY           SKY/WX    TMP DP  RH WIND       PRES   REMARKS
CHAMPAIGN      CLOUDY    74  71  91 SE3       30.05S
RANTOUL*       PTSUNNY   73  71  94 S5        30.04S
MATTOON        MOSUNNY   78  75  90 SW7       30.06R HX  81
PARIS*         CLOUDY    73  73  99 S6        30.07S FOG
$$

ILZ079-100>102-201300-
SOUTHWEST ILLINOIS

CITY           SKY/WX    TMP DP  RH WIND       PRES   REMARKS
BELLEVILLE     CLOUDY    77  73  88 W5        30.08R
CAHOKIA*       MOSUNNY   81  70  69 SW5       30.06R HX  84
SPARTA*        CLOUDY    77  71  82 CALM      30.09R
$$

ILZ064>066-069>071-074>076-080>082-084>086-088>090-092>094-201300-
SOUTH-CENTRAL ILLINOIS

CITY           SKY/WX    TMP DP  RH WIND       PRES   REMARKS
CARBONDALE     SUNNY     75  75 100 S3        30.08R
6HR MIN TEMP:  72; 6HR MAX TEMP:  77;

CAIRO*         SUNNY     79  74  84 SW6       30.09R HX  82
EFFINGHAM*     CLOUDY    77  75  92 CALM      30.09R
MARION         PTSUNNY   77  77 100 S6        30.09S
MT. VERNON     CLOUDY    75  73  93 SW3       30.09R
CENTRALIA*     MOSUNNY   77  73  88 S3        30.07R
SALEM*         CLOUDY    78  72  84 S5        30.07S
METROPOLIS*    MOSUNNY   76  75  95 CALM      30.10R FOG
$$

ILZ067-068-072-073-078-083-087-091-201300-
SOUTHEAST ILLINOIS

CITY           SKY/WX    TMP DP  RH WIND       PRES   REMARKS
LAWRENCEVILLE  SUNNY     74  73  97 SE3       30.08S FOG
FLORA*         SUNNY     77  74  92 SW6       30.07R FOG
FAIRFIELD*     SUNNY     74  73  96 CALM      30.08R
HARRISBURG*    SUNNY     74  74  98 CALM      30.09R FOG
ROBINSON*      CLOUDY    74  73  99 CALM      30.09R FOG
CARMI*         MOSUNNY   74  73  97 CALM      30.08R FOG
$$

ABBREVIATIONS USED IN REMARKS
   TC - TEMPERATURE IN CELSIUS
  WCI - WIND CHILL INDEX
   HX - HEAT INDEX
  VSB - VISIBILITY
$$





USA.gov is the U.S. government's official web portal to all federal, state and local government web resources and services.